Location: Harwich
(41.7160°N, 69.9939°W)
Time: 08:43:27
(UTC+01:00)

X-37B - Pass Details

Date: 12 December 2022
Orbit: 277 x 277 km, 45.0° (Epoch: 01 November)

Event Time Altitude Azimuth Distance (km) Brightness Sun altitude
Rises 23:00:19 0° 271° (W) 1,912 5.5 -9.3°
Reaches altitude 10° 23:02:18 10° 279° (W) 1,101 3.9 -9.6°
Maximum altitude 23:04:38 39° 351° (N) 432 0.7 -10.0°
Enters shadow 23:06:07 18° 55° (NE) 775 1.5 -10.3°
